Location: Anciles
(42.5833°N, 0.5167°E)
Time: 12:39:08
(UTC+00:00)

Lacrosse 5 rocket - Pass Details

Date: 10 December 2019
Orbit: 465 x 632 km, 57.0° (Epoch: 26 January)

Event Time Altitude Azimuth Distance (km) Brightness Sun altitude
Rises 16:55:30 0° 237° (WSW) 2,833 7.4 -5.8°
Reaches altitude 10° 16:57:52 10° 241° (WSW) 1,909 5.9 -6.2°
Maximum altitude 17:02:07 55° 320° (NW) 683 1.9 -6.9°
Drops below altitude 10° 17:06:11 10° 39° (NE) 1,816 3.4 -7.6°
Enters shadow 17:06:41 - 41° (NE) 2,010 3.6 -7.7°
